User: anonymous   Login
Location: Caltech
(34.1382°N, 118.1253°W)
Time: 14:16:39
(UTC-07:00)
Language:

Cosmos 1697 Rocket - Orbit

View from above orbital plane
View from above orbital plane
View from above satellite
View from above satellite

Ground track
Ground track

The orbit data is extracted from the following two-line orbital elements,

1 16182U 85097B   14296.16960288 -.00000119  00000-0 -35776-4 0  3965
2 16182 071.0040 244.6078 0005368 114.1989 337.1203 14.16131362499175
Epoch (UTC): 23 October 2014 04:04:13
Eccentricity: 0.0005368
inclination: 71.0040°
perigee height: 834 km
apogee height: 842 km
right ascension of ascending node: 244.6078°
argument of perigee: 114.1989°
revolutions per day: 14.16131362
mean anomaly at epoch: 337.1203°
orbit number at epoch: 49917

The dashed part of the orbit path shows where the satellite is in the earth's shadow,  

DLR